Location: Caribou
(46.8667°N, 68.0167°W)
Time: 07:10:39
(UTC-04:00)

Daily predictions for brighter satellites

Satellite Brightness Start Highest point End
(mag) Time Altitude Azimuth Time Altitude Azimuth Time Altitude Azimuth
Meteor 2-4 Rocket 3.9 20:43:12 10° S 20:48:47 63° E 20:54:33 10° NNE
Cosmos 1536 Rocket 4.2 20:44:35 10° SSW 20:48:50 60° WNW 20:53:08 10° N
SAR-Lupe-1 4.2 20:45:47 10° S 20:49:21 78° WSW 20:52:59 10° NNW
NOSS 2-2 (E) 4.1 20:45:50 10° SW 20:49:57 69° NW 20:54:55 10° NE
Helios 1B rocket 2.5 20:45:49 10° NNE 20:49:59 90° E 20:54:07 10° SSW
Cosmos 1606 Rocket 4.3 20:47:34 10° N 20:51:35 36° ENE 20:55:35 10° SE
Cosmos 192 4.3 20:53:30 10° S 20:58:20 66° ESE 21:03:13 10° NNE
USA 186 4.4 20:56:14 10° SW 20:58:35 19° W 21:00:53 10° NW
Cosmos 1726 Rocket 4.2 20:57:18 10° N 21:01:22 38° ENE 21:05:23 10° SE
Cosmos 405 3.0 20:58:27 10° N 21:02:02 89° E 21:05:35 10° S
Cosmos 2074 Rocket 4.4 20:57:04 10° NNW 21:03:17 68° W 21:09:28 10° S
Cosmos 1025 Rocket 3.0 21:01:52 10° S 21:06:04 61° E 21:10:18 10° NNE
Cosmos 2184 Rocket 4.4 21:00:13 10° NNW 21:06:32 67° W 21:12:45 10° S
USA 245 3.5 21:04:55 11° SE 21:06:48 24° ENE 21:08:45 10° NNE
Cosmos 1980 Rocket 3.9 21:04:43 10° N 21:09:06 22° NE 21:13:27 10° E
Aureole 1 Rocket 2.4 21:07:53 10° SSW 21:11:03 73° WNW 21:14:02 10° NNE
COSMOS 2487 4.0 21:09:55 11° SE 21:12:23 20° E 21:15:03 10° NE
SPOT 1/Viking Rocket 4.1 21:11:02 11° SE 21:15:48 44° ENE 21:20:41 10° N
Cosmos 2058 Rocket 3.7 21:11:37 10° N 21:15:48 40° ENE 21:19:33 12° SE
Cosmos 405 Rocket 4.3 21:14:02 10° SW 21:17:34 37° WNW 21:21:12 10° N
Cosmos 1371 Rocket 4.2 21:12:34 10° NNW 21:17:54 77° WSW 21:23:10 10° SSE
Cosmos 2322 Rocket 4.5 21:16:12 10° N 21:18:48 13° NE 21:21:24 10° ENE
YAOGAN 11 4.1 21:14:36 10° SSE 21:18:49 66° ENE 21:23:09 10° N
DEBRIS 4.1 21:16:36 10° SW 21:20:30 74° SSE 21:35:12 10° ENE
ARGOS 3.3 21:17:02 10° SSE 21:22:24 69° ENE 21:27:49 10° N
Okean 2 3.3 21:19:25 10° S 21:23:28 73° E 21:27:34 10° NNE
Meteor 1-23 Rocket 4.3 21:20:23 10° S 21:25:58 86° W 21:31:38 10° N
Lacrosse 5 rocket 3.8 21:22:20 10° NW 21:26:04 24° N 21:29:50 10° ENE
Cosmos 1441 Rocket 3.9 21:22:40 10° SSW 21:26:20 54° WNW 21:30:01 10° N
Tiangong 2 1.8 21:23:31 10° WSW 21:26:27 34° S 21:28:45 14° ESE
ERS-1 Rocket 3.4 21:22:25 10° S 21:27:23 64° WSW 21:32:24 10° NNW
CENTAUR R/B 4.5 21:21:04 10° NW 21:27:53 32° WSW 21:35:01 10° S
NOAA 11 4.3 21:24:06 10° S 21:29:33 79° WSW 21:35:01 10° NNW
Cosmos 962 Rocket 4.5 21:24:49 10° N 21:31:07 80° E 21:37:11 10° SSE
Terra 3.0 21:29:03 13° ESE 21:32:32 30° ENE 21:36:39 10° N
SPOT 5 2.6 21:30:14 13° SSE 21:34:07 83° ENE 21:38:32 10° NNW
H-2A R/B 3.2 21:38:05 15° ESE 21:41:09 32° ENE 21:45:11 10° N
MOS 1-B Rocket 4.3 21:36:12 10° S 21:41:59 70° WSW 21:48:37 10° NNW
MetOp-B 4.4 21:37:06 10° S 21:42:25 67° WSW 21:47:46 10° NNW
Cosmos 2278 3.8 21:39:03 10° NNW 21:44:48 84° WSW 21:49:20 17° SSE
USA 229 DEB 4.4 21:38:17 10° NW 21:45:11 50° NE 21:51:40 12° ESE
USA 229 4.4 21:38:24 10° NW 21:45:17 49° NE 21:51:46 12° ESE
Cosmos 2082 Rocket 2.6 21:42:01 10° S 21:47:19 42° ESE 21:52:38 10° NE
SL-8 Rocket 4.1 21:42:31 10° N 21:48:47 69° E 21:53:49 17° SSE
ATLAS CENTAUR R/B 3.8 21:48:55 10° N 21:50:28 12° NNE 21:52:01 10° NE
Cosmos 1626 Rocket 4.4 21:49:15 20° SE 21:51:28 32° E 21:55:20 10° NNE
Cosmos 2366 rocket 4.2 21:48:25 10° N 21:54:30 57° ENE 21:58:52 19° SSE
SL-24 DEB 4.4 21:57:20 13° S 22:01:21 70° W 22:06:01 10° N
ISS -3.3 21:58:10 10° WSW 22:01:27 63° NNW 22:04:44 10° ENE
H-2A R/B 2.0 21:59:49 18° SSE 22:03:31 83° WSW 22:08:37 10° NNW
Cosmos 2369 4.1 21:58:54 10° NNW 22:04:33 61° WSW 22:08:44 18° S
Cosmos 1697 Rocket 2.7 21:59:54 10° NNW 22:05:33 76° ENE 22:09:12 22° SE
Cosmos 2228 3.1 22:02:12 10° NNW 22:06:30 71° W 22:09:27 20° S
TELKOM 3 4.1 22:04:30 10° W 22:06:49 38° SSW 22:07:27 33° S
Cosmos 921 Rocket 3.9 22:05:07 10° NNW 22:09:24 45° WSW 22:12:33 17° S
SL-16 R/B 3.9 22:06:40 10° N 22:11:15 24° NE 22:15:46 10° E
Meteor 1-4 Rocket 2.4 22:09:13 10° N 22:12:50 88° ENE 22:14:27 31° S
Cosmos 1656 3.7 22:07:39 10° NNW 22:13:06 71° WSW 22:16:38 22° SSE
CZ-4B R/B 4.4 22:10:21 10° NE 22:14:52 31° E 22:16:50 24° SE
SL-08 RB Rocket 4.5 22:12:25 15° SSW 22:15:51 46° W 22:20:10 10° NNW
Iridium 2 4.5 22:16:59 10° N 22:20:33 37° E 22:21:42 29° ESE
DMSP B5D2-2 4.0 22:16:35 10° NNE 22:21:54 74° ESE 22:25:40 20° S
Cosmos 1842 4.1 22:23:40 29° ESE 22:24:35 33° E 22:28:10 10° NNE
Cosmos 1833 Rocket 2.6 22:19:02 10° SSW 22:24:36 75° ESE 22:30:15 10° NNE
Orbus 7S? 4.3 22:17:23 10° NW 22:25:23 64° NNE 22:27:51 22° ESE
Cosmos 1602 Rocket 3.5 22:23:56 27° S 22:26:12 72° E 22:30:31 10° NNE
Cosmos 1271 Rocket 3.1 22:24:18 10° N 22:28:07 51° ENE 22:29:26 34° SE
Timation 2 Rocket 4.1 22:23:59 18° S 22:28:32 54° ESE 22:34:29 10° NE
SL-08 R/B 4.5 22:22:31 10° N 22:28:40 84° W 22:32:42 23° S
SL-19 R/B 4.5 22:28:07 32° SE 22:29:53 65° ENE 22:33:36 10° N
CZ-4 R/B 4.2 22:25:05 10° NNE 22:29:59 49° E 22:32:13 29° SSE
deb Chang Zheng 4 3.6 22:28:13 10° NNE 22:32:31 61° ESE 22:34:20 32° S
Cosmos 1269 Rocket 4.3 22:30:24 27° SSE 22:32:54 49° ESE 22:38:01 10° NNE
Cosmos 2218 Rocket 4.2 22:28:53 10° NNW 22:34:59 67° W 22:39:17 20° S
Meteor 2-14 Rocket 4.4 22:32:09 10° N 22:38:16 89° WSW 22:41:50 26° S
Cosmos 1420 Rocket 4.1 22:33:15 10° NNW 22:38:32 72° WSW 22:41:10 29° S
Cosmos 1066 Rocket 4.5 22:34:16 14° SSW 22:39:03 68° WNW 22:44:44 10° N
Cosmos 1953 3.2 22:38:19 10° N 22:42:10 38° ENE 22:43:18 31° ESE
Cosmos 389 Rocket 3.4 22:40:13 10° N 22:43:25 33° ENE 22:43:58 31° E
DELTA 2 DEB (DPAF) 4.3 22:42:18 34° SE 22:44:05 63° ENE 22:48:32 10° N
Cosmos 1048 Rocket 4.0 22:42:28 29° S 22:45:02 64° ESE 22:50:11 10° NNE
SME Rocket 4.2 22:44:43 25° ESE 22:46:55 37° ENE 22:50:40 10° N
COSMOS 2487 4.3 22:44:27 10° SW 22:47:39 30° WNW 22:50:52 10° N
Cosmos 2360 Rocket 4.1 22:47:39 10° N 22:52:01 22° NE 22:56:19 10° E
CARTOSAT-1 4.2 22:50:14 28° SSW 22:52:10 49° W 22:56:23 10° NNW
Cosmos 1980 Rocket 2.2 22:48:05 10° NNW 22:53:47 78° WSW 22:56:23 33° SSE
Cosmos 1766 3.8 22:54:31 10° NNW 22:58:19 51° W 22:59:35 35° SSW
BREEZE-M DEB (TANK) 3.6 23:01:15 24° E 23:01:15 24° E 23:04:06 10° ENE
Meteor 1-21 4.2 22:56:53 27° S 23:00:09 89° W 23:05:57 10° N
Cosmos 1544 3.0 22:57:11 10° NNW 23:00:48 79° W 23:01:29 56° S
Tiangong 2 3.2 22:59:56 10° WSW 23:00:58 18° WSW 23:00:58 18° WSW
USA 267 3.7 22:57:45 10° ENE 23:03:44 37° SE 23:05:41 31° SSE
Cosmos 2322 Rocket 2.7 22:58:42 10° NNW 23:04:17 52° ENE 23:07:11 27° ESE
Nadezhda 3 Rocket 4.0 23:02:08 30° S 23:05:32 79° E 23:11:54 10° N
Lacrosse 5 rocket 2.6 23:01:49 10° NW 23:06:17 45° NNE 23:09:33 17° E
Terra 2.9 23:07:56 23° SW 23:10:10 36° W 23:14:35 10° NNW
NOSS 3-1 (C) 4.2 23:02:51 10° NW 23:10:16 72° NE 23:15:47 23° SE
Cosmos 1758 Rocket 3.7 23:13:32 47° SE 23:14:22 57° E 23:18:39 10° NNE
Cosmos 1470 3.3 23:10:35 10° N 23:14:28 47° ENE 23:15:08 42° ESE
Cosmos 2251 Rocket 4.2 23:14:55 33° SE 23:16:00 37° ESE 23:20:54 10° NE
H-2A R/B 3.5 23:15:12 22° SW 23:17:08 30° W 23:21:08 10° NW
Cosmos 1821 Rocket 4.0 23:12:12 10° N 23:18:30 81° E 23:21:21 35° SSE
Cosmos 2098 Rocket 4.3 23:14:30 10° N 23:18:38 36° ENE 23:20:20 28° ESE
SeaSat 1 3.1 23:17:12 28° ESE 23:19:30 49° NE 23:24:16 10° NNW
Cosmos 1758 3.5 23:19:38 10° NNW 23:23:37 64° W 23:24:21 51° SSW
Cosmos 1707 3.5 23:28:05 37° E 23:28:07 37° E 23:31:43 10° NNE
CZ-2C R/B 3.3 23:23:31 10° NNE 23:28:50 42° E 23:30:19 35° SE
Lacrosse 5 2.9 23:30:34 28° ESE 23:30:34 28° ESE 23:34:09 10° ENE
Cosmos 1805 4.1 23:26:25 10° NNW 23:30:07 41° W 23:30:53 36° WSW
ATLAS CENTAUR R/B 1.2 23:26:32 10° NNW 23:30:13 64° NE 23:30:40 58° E
Cosmos 2082 Rocket 3.6 23:26:17 10° WSW 23:31:29 36° NW 23:36:41 10° NNE
USA 229 DEB 4.2 23:29:25 10° NW 23:36:13 48° WSW 23:39:05 32° S
USA 229 4.2 23:29:31 10° NW 23:36:19 49° WSW 23:39:12 33° S
Cosmos 972 Rocket 3.9 23:32:53 10° NNW 23:38:10 80° WSW 23:39:35 48° S
ISS -2.1 23:35:15 10° WNW 23:38:18 34° N 23:41:22 10° ENE
USA 234 3.8 23:33:48 10° ESE 23:40:12 58° NNE 23:46:35 10° NW
Cosmos 1953 Rocket 3.6 23:40:02 49° SSW 23:41:10 75° W 23:45:40 10° N
Cosmos 1605 Rocket 4.1 23:35:06 10° N 23:41:11 66° E 23:43:35 37° SSE
ATLAS 2AS CENTAUR R/B 4.4 23:34:54 10° NW 23:42:20 36° NNE 23:49:25 10° E
Cosmos 1825 Rocket 4.1 23:41:26 36° SW 23:42:47 51° WNW 23:47:01 10° N
NOSS 3-1 (A) 4.0 23:35:37 10° NW 23:43:07 82° NE 23:48:12 27° SE
H-2A R/B 4.5 23:42:34 10° W 23:43:47 11° W 23:45:01 10° WNW
CZ-4B R/B 3.8 23:45:55 13° ENE 23:46:20 14° ENE 23:47:58 10° NNE
ALOS 2 2.6 23:46:15 54° SE 23:47:08 71° ENE 23:51:31 10° N
USA 32 4.3 23:46:20 43° SE 23:47:45 58° E 23:52:55 10° NNE
